This is the latest recevied weather packets stored in our database for station/object YU7OR-2. If no packets are shown the sender has not sent any weather packets the latest 10 day(s).
| Time | Temp. | Humidity | Pressure | Rain* | Wind** | Luminosity | Snow |
|---|---|---|---|---|---|---|---|
| 1777709999 | 19.44° C | 47% | 1021.7 hPa | 0 mm | - | - | - |
| 1777709704 | 19.44° C | 47% | 1021.8 hPa | 0 mm | - | - | - |
| 1777709454 | 19.44° C | 47% | 1021.8 hPa | 0 mm | - | - | - |
| 1777709174 | 18.89° C | 48% | 1021.7 hPa | 0 mm | - | - | - |
| 1777708904 | 18.89° C | 49% | 1021.9 hPa | 0 mm | - | - | - |
| 1777708644 | 18.89° C | 49% | 1021.8 hPa | 0 mm | - | - | - |
| 1777708384 | 18.89° C | 48% | 1021.9 hPa | 0 mm | - | - | - |
| 1777708084 | 18.89° C | 48% | 1022 hPa | 0 mm | - | - | - |
| 1777707799 | 18.89° C | 48% | 1021.7 hPa | 0 mm | - | - | - |
| 1777707519 | 18.89° C | 50% | 1021.8 hPa | 0 mm | - | - | - |
| 1777707239 | 18.89° C | 49% | 1021.9 hPa | 0 mm | - | - | - |
| 1777706979 | 18.33° C | 49% | 1021.8 hPa | 0 mm | - | - | - |
| 1777706709 | 18.33° C | 48% | 1021.8 hPa | 0 mm | - | - | - |
| 1777706454 | 18.33° C | 48% | 1021.8 hPa | 0 mm | - | - | - |
| 1777706182 | 18.33° C | 49% | 1021.7 hPa | 0 mm | - | - | - |
| 1777705924 | 17.78° C | 48% | 1021.7 hPa | 0 mm | - | - | - |
| 1777705629 | 17.22° C | 49% | 1021.7 hPa | 0 mm | - | - | - |
| 1777705384 | 17.22° C | 48% | 1021.6 hPa | 0 mm | - | - | - |
| 1777705139 | 16.67° C | 48% | 1021.3 hPa | 0 mm | - | - | - |
| 1777704849 | 16.67° C | 47% | 1021.3 hPa | 0 mm | - | - | - |
| 1777704584 | 16.11° C | 48% | 1021.4 hPa | 0 mm | - | - | - |
| 1777704309 | 16.11° C | 48% | 1021.3 hPa | 0 mm | - | - | - |
| 1777704019 | 15.56° C | 48% | 1021.3 hPa | 0 mm | - | - | - |
| 1777703724 | 15.56° C | 48% | 1021.1 hPa | 0 mm | - | - | - |
| 1777703424 | 15° C | 50% | 1021.2 hPa | 0 mm | - | - | - |
* Rain latest hour (hover to see other rain measurements)
** Current wind speed in m/s (hover to see current wind gust speed)